Find Starlink 36262

NORAD ID: 67201 Int'l Des: 2025-304 Owner: SPXS Country: US Constellation: starlink operational
LEOCIRCULAR

Live Position

Loading 3D Globe...

About Starlink 36262

Description loading...

Upcoming Passes

Passes for default location (London). Set your location on the main map for personalized predictions.

Altitude History

Loading altitude history...

Two-Line Element Set

1 67201U 25304K 26105.89370911 .00002477 00000-0 21530-3 0 9996
2 67201 70.0000 80.8080 0002973 269.9932 90.0887 14.98336995 19458
Epoch: Apr 15, 2026 • Age: 14 hours

Current Status

Altitude 589.3 km
Velocity 7.57 km/s
Sub-Earth Point -50.39°S, 89°W
Launch Date Dec 17, 2025
Age 0.3 years
Type internet

Technical Details

Classification Payload
Mass 575.00 kg
Dry Mass 530.00 kg
Total Mass 575.00 kg
Length 0.30 m
Diameter 4.10 m
Span 29.00 m
Shape Box + pan
Manufacturer SPXS
Bus Type Starlink V2MO
Phase Status In Orbit
Owner/State SPXS/US

Most Searched